This is the latest recevied weather packets stored in our database for station/object N1MCJ. If no packets are shown the sender has not sent any weather packets the latest 10 day(s).
| Time | Temp. | Humidity | Pressure | Rain* | Wind** | Luminosity | Snow |
|---|---|---|---|---|---|---|---|
| 1777664243 | 16.67° C | 36% | 1001.5 hPa | 0 mm | - | 606 W/m² | - |
| 1777663341 | 17.22° C | 34% | 1001.9 hPa | 0 mm | - | 84 W/m² | - |
| 1777662438 | 17.22° C | 36% | 1001.8 hPa | 0 mm | - | 176 W/m² | - |
| 1777661537 | 17.22° C | 34% | 1002.1 hPa | 0 mm | - | 639 W/m² | - |
| 1777660637 | 15.56° C | 37% | 1002.3 hPa | 0 mm | - | 373 W/m² | - |
| 1777659733 | 15.56° C | 38% | 1002.5 hPa | 0 mm | - | 322 W/m² | - |
| 1777658831 | 15.56° C | 37% | 1002.4 hPa | 0 mm | - | 199 W/m² | - |
| 1777657926 | 15.56° C | 39% | 1002.6 hPa | 0 mm | - | 118 W/m² | - |
| 1777657024 | 15° C | 40% | 1002.7 hPa | 0 mm | - | 102 W/m² | - |
| 1777656123 | 15° C | 42% | 1002.6 hPa | 0 mm | - | 219 W/m² | - |
| 1777655219 | 13.89° C | 41% | 1002.9 hPa | 0 mm | - | 170 W/m² | - |
| 1777654317 | 13.89° C | 45% | 1002.6 hPa | 0 mm | - | 257 W/m² | - |
| 1777653413 | 13.33° C | 41% | 1003 hPa | 0 mm | - | 409 W/m² | - |
| 1777652509 | 13.33° C | 47% | 1003.3 hPa | 0 mm | - | 62 W/m² | - |
| 1777651605 | 13.89° C | 44% | 1003.1 hPa | 0 mm | - | 258 W/m² | - |
| 1777650702 | 13.33° C | 45% | 1003.4 hPa | 0 mm | - | 695 W/m² | - |
| 1777649799 | 12.78° C | 49% | 1003.7 hPa | 0 mm | - | 668 W/m² | - |
| 1777648896 | 11.67° C | 52% | 1003.4 hPa | 0 mm | - | 190 W/m² | - |
| 1777647992 | 11.67° C | 51% | 1004 hPa | 0 mm | - | 124 W/m² | - |
| 1777647088 | 11.11° C | 53% | 1004 hPa | 0 mm | - | 293 W/m² | - |
| 1777646186 | 11.11° C | 59% | 1003.7 hPa | 0 mm | - | 98 W/m² | - |
| 1777645283 | 10.56° C | 56% | 1003.6 hPa | 0 mm | - | 576 W/m² | - |
| 1777644378 | 10.56° C | 59% | 1003.6 hPa | 0 mm | - | 65 W/m² | - |
| 1777643475 | 10.56° C | 58% | 1003.9 hPa | 0 mm | - | 239 W/m² | - |
| 1777642571 | 9.44° C | 63% | 1003.4 hPa | 0 mm | - | 262 W/m² | - |
* Rain latest hour (hover to see other rain measurements)
** Current wind speed in m/s (hover to see current wind gust speed)